STARLINK-34029, 63805

Orbit data source: Space-Track

STARLINK-34029, 63805 is a payload satellite owned by SpaceX/Seattle (US) in LEO that was launched on Sun, 04 May 2025 UTC via an FALCON 9 launch vehicle from the Air Force Eastern Test Range (AFETR). Payload-class satellites include a variety of spacecraft equipped with specific instruments for various scientific and technological missions. These include communications satellites like Starlink; space stations such as the ISS; scientific satellites like the Hubble; Earth observation satellites from companies like Planet Labs, Umbra, and HawkEye 360; GPS; miniature CubeSats for education and research; and military/defense satellites.

Loading next visibility...
Identifier
63805, 2025-092B
Orbit
LEO
Country
Flag of USUS
Related business
Manufacturer
SpaceX/Seattle
Mission
Operational Commercial Communications
Bus & Motor
STARLINK V2MO, Unknown motor
Mass
575 kg wet, ~530 kg dry
Launch date (UTC)
2025-05-04 (9 months ago)
Launch vehicle
FALCON 9
Launch site
Air Force Eastern Test Range (AFETR)
Object type
Payload
Rocket body
Debris
Shape & HBR
Box + 2 Pan, 17.7 m
Radar Cross Section
36.964 m², Large (>1 m²)

Expand to show TLE details & history
Last TLE update: 22 hours ago

TLE from 22 hours ago
0 STARLINK-34029
1 63805U 25092B   26034.31667169  .00029142  00000-0  10630-2 0  9994
2 63805  43.0044   7.0205 0001428 255.7028 104.3665 15.27623418 43356
Epoch: 2026-02-03T07:36Z
TLE epoch observation values (Epoch: 2026-02-03T07:36:00.434Z)
Latitude
-0.00001°
Longitude
119.51933°
Altitude
482.938 km
Speed
7.626 km/s
True Right ascension
00h 28m 04s
True Declination
0° 00' 00"
Sunlit
Object was in daylight at epoch
Visualization orbit readout
Latitude
Unknown
Longitude
Unknown
Altitude
Unknown
Speed
Unknown
Apparent Right ascension
Unknown
Apparent Declination
Unknown
Sunlit
N/A
Visualization observer readout
Local Sidereal Time
07:08:55
Azimuth
Unknown
Elevation
Unknown
Doppler factor
Unknown
Orbital elements
Apogee altitude
485.844 km
Perigee altitude
483.884 km
Semi-major axis
6,863.001 km
Eccentricity
0.00014
Inclination
43.0044°
RAAN
7.0205°
Arg. of periapsis
255.7028°
True anomaly
104.38235°
Mean anomaly
104.3665°
Eccentric anomaly
104.37443°
Mean motion
3.81744 °/min
Orbital period
94.3 mins
BSTAR
0.001063
Loading maneuver chart data...
Computing Atmospheric mass density...
Loading historical data...
Loading historical data...
Loading historical data...
Loading historical data...
Loading historical data...
Loading historical data...
Loading historical data...

Documentation

Showing up to 5 results
|